{"data":{"norad_id":66598,"intl_designator":"2025-270L","name":"STARLINK-35981","alt_names":[],"object_type":"PAYLOAD","status":"ACTIVE","operator":null,"country":"US","launch_date":"2025-11-22","launch_site_code":"AFETR","launch_vehicle":null,"mission":null,"orbit_class":"UNKNOWN","rcs_meters":null,"size_class":null,"mass_kg":null,"dimensions":null,"purposes":["comms"],"wikipedia_slug":null,"has_3d_model":false,"image_url":null,"decayed_at":null,"tle_current":{"epoch":"2026-09-20T08:52:05.834208Z","epoch_age_seconds":98358,"freshness":"FRESH","line1":"1 66598U 25270L   26263.36951197  .00018249  00000+0  67089-3 0  9996","line2":"2 66598  43.0039  36.3821 0002895 282.9730  77.0798 15.27585361 47331","mean_motion":15.27585361,"eccentricity":0.0002895,"inclination_deg":43.0039,"raan_deg":36.3821,"arg_perigee_deg":282.973,"mean_anomaly_deg":77.0798,"bstar":0.00067089,"rev_number":4733,"period_min":94.266417888251,"perigee_km":481.04673459645,"apogee_km":485.01935205153,"semimajor_km":6861.170043324,"source":"CELESTRAK","updated_at":"2026-09-21T09:00:35.977826Z"}}}